Résultats de la compétition "Chpt de France Moyenne Distance Arcey" du 08-05-2010 organisée par le club 2105
     
  Télécharger le fichier CSV.  
     
     

 Circuit "G"

Licence Nom Prénom Temps CN
précédent
Score sur
la course
Différence
2401DEVILLENelly0:27:1844024206-196
1448KENANEAbdelkader0:28:2746834036-647
2716HABERKORNDidier0:29:1540663926-140
999KERFRIDENJ-Pierre0:29:5621173836+1719
7574OUDINM-Reine0:30:2839203769-151
16403EUZENJ-Paul0:31:4630993615+516
1087ROBERTMartine0:32:2037323551-181
6491ROBERTFrancoise0:33:0042643480-784
6886FRANTZFrancoise0:34:1735163349-167
1000LEFOUESTJoseph0:34:2537513336-415
1380DIEUDONNEMadeleine0:34:2740253333-692
2557VOGTChristiane0:34:3436493322-327
2888MOULIEREM-Bernadett0:35:2231523247+95
701ABISSEGisele0:35:2733703239-131
14245RICHARDNicole0:35:4731133209+96
3302JEANPIERREM-Therese0:35:5831283193+65
2349HELIOTClaude0:36:0133483188-160
7182BERGERM-Jose0:36:0429253184+259
1443BEGUINOTJacques0:36:0823593178+819
4389THIEBAULDGeorges0:37:2133643074-290
2446RIFFARDM-Lucie0:39:1626112924+313
6443GEOFFROYNicole0:39:4825352885+350
2674GUETINMichel0:41:2825632769+206
2680KIEFFERMireille0:44:1627852594-191
2511ASTClaudine0:46:25N/A2474N/A
11071POINSENOTRoger0:46:2628762473-403
4671POGUPaulette0:47:4127972408-389
512BOCHETRoland0:47:4227082407-301
15630DIRRINGERM-Claude0:47:5130622400-662
15324ETIENNEBernadette0:48:4724582354-104
4479BOUCHERLEGhislaine0:48:48N/A2353N/A
6826DUVOUXFrance0:48:5527232347-376
5497COCAULTYvonne0:50:3029462274-672
1001LEFOUESTM-Therese0:50:3021152274+159
15894LUDEWIG-JAMESCarol0:50:4521282263+135
2115SXAYMichelle0:52:17N/A2196N/A
4392DODINGenevieve0:54:0421242124+0
725LAURENTTherese0:57:0621682011-157
11368LAUNEYNoella1:00:1220961907-189
368VESCOVOOdile1:02:5916491823+174
934TESTOUDMadeleine1:03:2817991809+10
1444BEGUINOTM-LouiseN/A12510-1251

  Indice de confiance du circuit (moyenne des différences entre CN et score sur la course des 3 à 10 premiers) : 182






 Retour